Date String (YYYY-MM-DD hh:mm:ss) UTC,Instrument flags,Ambient pressure (hPa),Sample flow (lpm),Bypass flow (lpm),Sample temperature (°C),Ambient temperature (°C),ASC tube jacket temperature (°C),LED temperature (°C),Box temperature (°C),Sample RH (%),Span deviation,Mass concentration (μg/m³),Mass concentration (μg/m³),Mass concentration (μg/m³)
DateTimeUTC,F1_M11,P_M11,Q1_M11,Q2_M11,T1_M11,T2_M11,T3_M11,T4_M11,T5_M11,U1_M11,ZSPAN_M11,X2_M11,X0_M11,X1_M11
2021-09-23 01:00:00,,0830.1,4.99,0.00,29.7,28.8,00.0,38.6,31.6,10.8,0000.0,0003.13,0012.95,0001.20
2021-09-23 01:01:00,,0830.1,5.01,0.00,29.7,28.9,00.0,38.6,31.7,10.7,0000.0,0003.16,0013.48,0001.22
2021-09-23 01:02:00,,0830.1,5.01,0.00,29.8,29.0,00.0,38.6,31.7,10.7,0000.0,0003.17,0013.58,0001.23
2021-09-23 01:03:00,,0830.1,4.99,0.00,29.8,28.2,00.0,38.6,31.5,10.7,0000.0,0003.14,0013.57,0001.23
2021-09-23 01:04:00,,0830.1,5.00,0.00,29.6,26.0,00.0,38.6,30.8,10.7,0000.0,0003.13,0015.42,0001.24
2021-09-23 01:05:00,,0830.1,4.99,0.00,29.4,25.4,00.0,38.6,30.6,10.9,0000.0,0003.18,0015.59,0001.22
2021-09-23 01:06:00,,0830.1,5.01,0.00,29.3,25.8,00.0,38.5,30.7,11.0,0000.0,0003.23,0016.07,0001.22
2021-09-23 01:07:00,,0830.1,4.99,0.00,29.3,26.3,00.0,38.5,30.8,11.1,0000.0,0003.28,0017.00,0001.24
2021-09-23 01:08:00,,0830.1,5.01,0.00,29.3,26.7,00.0,38.5,30.9,11.1,0000.0,0003.30,0017.58,0001.26
2021-09-23 01:09:00,,0830.1,5.00,0.00,29.3,27.2,00.0,38.4,31.0,11.1,0000.0,0003.29,0017.91,0001.26
2021-09-23 01:10:00,,0830.0,4.99,0.00,29.3,27.5,00.0,38.4,31.1,11.1,0000.0,0003.25,0017.93,0001.26
2021-09-23 01:11:00,,0830.1,5.01,0.00,29.4,27.8,00.0,38.4,31.2,11.0,0000.0,0003.24,0018.73,0001.27
2021-09-23 01:12:00,,0830.1,5.00,0.00,29.4,28.0,00.0,38.4,31.3,11.1,0000.0,0003.22,0019.29,0001.26
2021-09-23 01:13:00,,0830.1,4.99,0.00,29.5,28.2,00.0,38.5,31.3,11.1,0000.0,0003.23,0019.02,0001.27
2021-09-23 01:14:00,,0830.1,5.01,0.00,29.5,28.4,00.0,38.5,31.4,11.2,0000.0,0003.32,0019.24,0001.27
2021-09-23 01:15:00,,0830.2,4.99,0.00,29.6,28.6,00.0,38.5,31.5,11.1,0000.0,0003.36,0017.78,0001.27
2021-09-23 01:16:00,,0830.2,5.02,0.00,29.6,28.7,00.0,38.5,31.5,11.1,0000.0,0003.35,0017.99,0001.27
2021-09-23 01:17:00,,0830.3,4.99,0.00,29.7,28.8,00.0,38.5,31.6,11.2,0000.0,0003.33,0018.17,0001.30
2021-09-23 01:18:00,,0830.2,5.01,0.00,29.7,28.9,00.0,38.6,31.6,11.3,0000.0,0003.34,0018.32,0001.29
2021-09-23 01:19:00,,0830.2,5.01,0.00,29.7,29.0,00.0,38.6,31.7,11.4,0000.0,0003.31,0018.58,0001.28
2021-09-23 01:20:00,,0830.2,5.01,0.00,29.8,29.2,00.0,38.6,31.7,11.2,0000.0,0003.31,0017.86,0001.29
2021-09-23 01:21:00,,0830.2,4.99,0.00,29.8,28.5,00.0,38.7,31.6,11.0,0000.0,0003.34,0017.92,0001.28
2021-09-23 01:22:00,,0830.1,5.00,0.00,29.7,26.6,00.0,38.7,31.1,11.1,0000.0,0003.36,0018.00,0001.30
2021-09-23 01:23:00,,0830.1,5.00,0.00,29.6,26.4,00.0,38.6,31.0,11.1,0000.0,0003.38,0017.67,0001.33
2021-09-23 01:24:00,,0830.1,5.00,0.00,29.5,26.7,00.0,38.6,31.1,11.2,0000.0,0003.39,0018.02,0001.36
2021-09-23 01:25:00,,0830.1,5.01,0.00,29.5,27.1,00.0,38.6,31.1,11.2,0000.0,0003.35,0018.90,0001.38
2021-09-23 01:26:00,,0830.1,4.98,0.00,29.5,27.5,00.0,38.6,31.2,11.2,0000.0,0003.41,0018.17,0001.42
2021-09-23 01:27:00,,0830.2,5.01,0.00,29.5,27.8,00.0,38.6,31.3,11.2,0000.0,0003.40,0017.58,0001.46
2021-09-23 01:28:00,,0830.2,5.00,0.00,29.6,28.1,00.0,38.6,31.4,11.2,0000.0,0003.33,0017.69,0001.46
2021-09-23 01:29:00,,0830.2,4.99,0.00,29.6,28.3,00.0,38.6,31.4,11.2,0000.0,0003.28,0017.27,0001.49
2021-09-23 01:30:00,,0830.2,5.01,0.00,29.6,28.5,00.0,38.6,31.5,11.2,0000.0,0003.30,0016.01,0001.51
2021-09-23 01:31:00,,0830.3,5.00,0.00,29.7,28.7,00.0,38.6,31.5,11.1,0000.0,0003.30,0016.27,0001.52
2021-09-23 01:32:00,,0830.3,5.00,0.00,29.7,28.8,00.0,38.7,31.6,11.2,0000.0,0003.29,0015.80,0001.54
2021-09-23 01:33:00,,0830.3,5.01,0.00,29.8,28.9,00.0,38.7,31.6,11.2,0000.0,0003.31,0013.77,0001.54
2021-09-23 01:34:00,,0830.3,4.99,0.00,29.8,29.0,00.0,38.7,31.7,11.1,0000.0,0003.34,0012.89,0001.56
2021-09-23 01:35:00,,0830.3,5.00,0.00,29.8,29.1,00.0,38.7,31.7,11.1,0000.0,0003.36,0013.20,0001.58
2021-09-23 01:36:00,,0830.3,4.99,0.00,29.9,28.3,00.0,38.7,31.5,10.9,0000.0,0003.32,0011.67,0001.59
2021-09-23 01:37:00,,0830.3,5.00,0.00,29.7,26.6,00.0,38.7,31.1,11.0,0000.0,0003.23,0011.21,0001.58
2021-09-23 01:38:00,,0830.3,5.00,0.00,29.6,26.4,00.0,38.7,31.0,11.1,0000.0,0003.23,0011.27,0001.57
2021-09-23 01:39:00,,0830.4,5.00,0.00,29.5,26.7,00.0,38.7,31.0,11.1,0000.0,0003.20,0010.70,0001.58
2021-09-23 01:40:00,,0830.3,5.00,0.00,29.5,27.1,00.0,38.7,31.1,11.2,0000.0,0003.18,0011.65,0001.56
2021-09-23 01:41:00,,0830.3,4.98,0.00,29.5,27.5,00.0,38.6,31.2,11.2,0000.0,0003.14,0012.16,0001.55
2021-09-23 01:42:00,,0830.3,5.01,0.00,29.5,27.8,00.0,38.6,31.3,11.2,0000.0,0003.13,0013.76,0001.55
2021-09-23 01:43:00,,0830.3,4.99,0.00,29.6,28.1,00.0,38.6,31.3,11.2,0000.0,0003.11,0014.99,0001.54
2021-09-23 01:44:00,,0830.3,4.98,0.00,29.6,28.3,00.0,38.6,31.4,11.2,0000.0,0003.12,0015.54,0001.55
2021-09-23 01:45:00,,0830.3,5.01,0.00,29.6,28.5,00.0,38.6,31.4,11.3,0000.0,0003.12,0015.71,0001.54
2021-09-23 01:46:00,,0830.3,5.00,0.00,29.7,28.7,00.0,38.7,31.5,11.2,0000.0,0003.13,0016.18,0001.51
2021-09-23 01:47:00,,0830.3,4.99,0.00,29.7,28.8,00.0,38.7,31.6,11.2,0000.0,0003.19,0018.57,0001.51
2021-09-23 01:48:00,,0830.3,5.01,0.00,29.8,28.9,00.0,38.7,31.6,11.2,0000.0,0003.22,0019.95,0001.51
2021-09-23 01:49:00,,0830.4,5.00,0.00,29.8,29.0,00.0,38.7,31.7,11.1,0000.0,0003.20,0020.12,0001.51
2021-09-23 01:50:00,,0830.4,5.00,0.00,29.8,29.0,00.0,38.7,31.7,11.2,0000.0,0003.24,0019.94,0001.50
2021-09-23 01:51:00,,0830.4,4.99,0.00,29.9,28.9,00.0,38.8,31.7,11.1,0000.0,0003.30,0018.84,0001.52
2021-09-23 01:52:00,,0830.4,5.00,0.00,29.8,27.2,00.0,38.8,31.3,11.1,0000.0,0003.33,0018.46,0001.51
2021-09-23 01:53:00,,0830.5,5.01,0.00,29.7,26.2,00.0,38.8,31.0,11.2,0000.0,0003.38,0017.26,0001.52
2021-09-23 01:54:00,,0830.5,5.00,0.00,29.6,26.4,00.0,38.7,31.1,11.2,0000.0,0003.34,0015.39,0001.52
2021-09-23 01:55:00,,0830.4,5.00,0.00,29.5,26.8,00.0,38.7,31.1,11.2,0000.0,0003.29,0014.74,0001.51
2021-09-23 01:56:00,,0830.4,5.00,0.00,29.5,27.2,00.0,38.6,31.2,11.1,0000.0,0003.28,0015.03,0001.51
2021-09-23 01:57:00,,0830.4,5.00,0.00,29.5,27.6,00.0,38.6,31.3,11.1,0000.0,0003.26,0015.25,0001.51
2021-09-23 01:58:00,,0830.4,5.00,0.00,29.5,27.9,00.0,38.6,31.3,11.0,0000.0,0003.28,0013.03,0001.50
2021-09-23 01:59:00,,0830.4,5.00,0.00,29.6,28.1,00.0,38.6,31.4,11.0,0000.0,0003.26,0011.69,0001.49
